Regional Weather Roundup
Issued by NWS Glasgow, MT

Home | Current Version | Previous Version | Text Only | Print | Product List | Glossary On
Versions: 1 2 3 4 5 6 7 8 9 10 11 12 13 14 15 16 17 18 19 20 21 22 23 24 25 26 27 28 29 30 31 32 33 34 35 36 37 38 39 40 41 42 43 44 45 46 47 48 49 50
000
ASUS45 KGGW 221815
RWRGGW
HOURLY WEATHER ROUNDUP FOR NORTHEAST MONTANA
NATIONAL WEATHER SERVICE GLASGOW MONTANA
1200 PM MDT MON SEP 22 2014

NOTE: "FAIR" INDICATES FEW OR NO CLOUDS BELOW 12,000 FEET WITH NO
SIGNIFICANT WEATHER AND/OR OBSTRUCTIONS TO VISISBILITY.

NORTHEAST MONTANA


CITY           SKY/WX    TMP DP  RH WIND       PRES   REMARKS
GLASGOW        SUNNY     70  44  39 SE14G21   29.91F
6HR MIN TEMP:  47; 6HR MAX TEMP:  70;

PLENTYWOOD       N/A     74  38  27 S8          N/A
WOLF POINT     SUNNY     75  47  36 E8        29.92F
JORDAN           N/A     75  46  35 S6        29.90F
WINNETT          N/A     76  50  40 S1          N/A
SIDNEY         SUNNY     75  46  35 E3        29.96F
GLENDIVE       SUNNY     72  46  40 E3        29.96F
MALTA            N/A     76  48  37 SE3         N/A
OPHEIM           N/A     72  41  33 SE7       29.73F

FORT PECK REPORTS


CITY           SKY/WX    TMP DP  RH WIND       PRES   REMARKS
FORT PECK        N/A     73  47  39 N1          N/A
THE PINES        N/A     75  43  31 S3          N/A

SOUTHEAST MONTANA


CITY           SKY/WX    TMP DP  RH WIND       PRES   REMARKS
BILLINGS       PTSUNNY   73  51  46 S9        29.96F
MILES CITY     MOSUNNY   72  46  39 SE8       29.92F
BAKER          PTSUNNY   67  44  43 SE13      29.98F
LIVINGSTON     CLOUDY    68  49  50 SW22G30   30.04S

CENTRAL MONTANA


CITY           SKY/WX    TMP DP  RH WIND       PRES   REMARKS
HAVRE          SUNNY     69  47  45 CALM      29.88F
LEWISTOWN      MOSUNNY   75  46  35 NW6       29.96F
GREAT FALLS    MOSUNNY   76  50  40 W12       29.92F
CUT BANK       SUNNY     77  49  37 VRB3      29.92F
HELENA         PTSUNNY   70  47  43 CALM      30.01F
BUTTE          CLOUDY    62  46  55 CALM      30.12S
BOZEMAN        CLOUDY    65  50  58 N3        30.07F

WESTERN MONTANA


CITY           SKY/WX    TMP DP  RH WIND       PRES   REMARKS
MISSOULA       MOSUNNY   69  42  37 CALM      30.00F
KALISPELL      NOT AVBL

NORTH DAKOTA


CITY           SKY/WX    TMP DP  RH WIND       PRES   REMARKS
WILLISTON      SUNNY     74  43  32 SE8       29.96F
DICKINSON      SUNNY     72  47  40 SE12      29.99F
MINOT          SUNNY     75  42  30 SE14      30.02F
BISMARCK       SUNNY     78  45  30 S17       30.05F

SOUTHERN SASKATCHEWAN


CITY           SKY/WX    TMP DP  RH WIND       PRES   REMARKS
REGINA         SUNNY     73  46  38 SE14      29.93F
MOOSE JAW      SUNNY     79  46  31 S8        29.90F
ESTEVAN        SUNNY     75  46  35 S3        29.98F
SWIFT CURRENT  SUNNY     75  43  31 S17       29.86F




USA.gov is the U.S. government's official web portal to all federal, state and local government web resources and services.